THOR ABLESTAR DEB, 263

Orbit data source: Space-Track

THOR ABLESTAR DEB, 263 is space debris in LEO originally from a launch on Thu, 29 Jun 1961 UTC launched from the Air Force Eastern Test Range (AFETR). Debris objects in space refer to the collection of defunct objects orbiting the Earth. Examples of debris include non-operational satellites, rocket bodies, and fragments generated from explosions, collisions, or faulty payload assembly.

Loading next visibility...
Identifier
263, 1961-015CK
Orbit
LEO
Country
Flag of USUS
Related business
Manufacturer
Unknown
Mission
Spacecraft
Bus & Motor
Unknown
Mass
Unknown
Launch date (UTC)
1961-06-29 (64 years ago)
Launch vehicle
Unknown
Launch site
Air Force Eastern Test Range (AFETR)
Object type
Payload
Rocket body
Debris
Shape & HBR
Unknown
Radar Cross Section
Small (<0.1 m²)

Expand to show TLE details & history
Last TLE update: 7 hours ago

TLE from 7 hours ago
0 THOR ABLESTAR DEB
1 00263U 61015CK  25260.97518596  .00001184  00000-0  33932-3 0  9996
2 00263  66.5289 144.9906 0090311 105.1657 356.5111 14.46313967343917
Epoch: 2025-09-17T23:24Z
TLE epoch observation values (Epoch: 2025-09-17T23:24:16.066Z)
Latitude
64.07579°
Longitude
-85.89792°
Altitude
683.731 km
Speed
7.555 km/s
True Right ascension
17h 29m 14s
True Declination
63° 56' 20"
Sunlit
Object was in daylight at epoch
Visualization orbit readout
Latitude
Unknown
Longitude
Unknown
Altitude
Unknown
Speed
Unknown
Apparent Right ascension
Unknown
Apparent Declination
Unknown
Sunlit
N/A
Visualization observer readout
Local Sidereal Time
22:55:29
Azimuth
Unknown
Elevation
Unknown
Doppler factor
Unknown
Orbital elements
Apogee altitude
800.345 km
Perigee altitude
671.846 km
Semi-major axis
7,114.233 km
Eccentricity
0.00903
Inclination
66.5289°
RAAN
144.9906°
Arg. of periapsis
105.1657°
True anomaly
356.4474°
Mean anomaly
356.5111°
Eccentric anomaly
356.47932°
Mean motion
3.61702 °/min
Orbital period
99.53 mins
BSTAR
0.00033932
Loading maneuver chart data...
Computing Atmospheric mass density...

Documentation

Showing up to 5 results
|